User: anonymous   Login
Location: *
(50.6089°N, 2.2719°E)
Time: 23:56:25
(UTC+00:00)
Language:

Cosmos 1939 Rocket - Orbit

View from above orbital plane
View from above orbital plane
View from above satellite
View from above satellite

Ground track
Ground track

The orbit data is extracted from the following two-line orbital elements,

1 19046U 88032B   19340.68541037  .00000620  00000-0  50184-4 0  9992
2 19046  97.4220   5.1592 0038455 144.9184 215.4586 15.02649658708152
Epoch (UTC): 06 December 2019 16:26:59
Eccentricity: 0.0038455
inclination: 97.4220°
perigee height: 532 km
apogee height: 585 km
right ascension of ascending node: 5.1592°
argument of perigee: 144.9184°
revolutions per day: 15.02649658
mean anomaly at epoch: 215.4586°
orbit number at epoch: 70815

The dashed part of the orbit path shows where the satellite is in the earth's shadow,  

DLR